Content
SEND FEEDBACK

Daily
Averages
Monthly
Summary
United States of America

BOULDER, MONTANA


Home > North America > United States > Montana
Elevation: 4909 feet     Latitude: 46 14N     Longitude: 112 06W

WEATHER
 
SELECT A DAY
Number of Records: 191,678;   Date Range: 1/1/95 - 10/19/14
 
SHARE

PRINT THIS DATA

[ ← Previous Day ]
WEATHER ALMANAC - FEBRUARY 13, 2013
[ Next Day → ]
[ °C ]   °F
Weather ElementAverageHighLow
Temperature33.9 °F39 °F (11:53 am)30 °F (3:53 am)
Dewpoint19.4 °F24.1 °F (6:53 am)14 °F (8:53 pm)
Humidity56.5 %76 % (6:53 am)42 % (3:53 pm)
Barometer30.09 in30.17 in (11:53 pm)30.04 in (1:53 pm)
Wind Speed11.8 mph21.9 mph (1:53 pm)
Wind Gust32.2 mph (1:53 pm)
Weather ElementAverage
Visibility10 mi
Wind DirectionWSW (247.4 °)

Weather ElementTotal
Precipitation---
Heating Degree Days30.5 (Base 65)
Averaged from 23 records on February 13, 2013
WEATHER CONDITIONS BREAKOUT
WIND DIRECTION BREAKOUT
WEATHER BY HOUR - FEBRUARY 13, 2013
[ °C ]   °F
Local TimeTemperatureDewpointHumidityBarometerVisibilityWind DirectionWind SpeedGust SpeedPrecipitationEventsConditions
1:53 AM32.0 °F21.0 °F64 %30.10 in10.0 miVariable3.5 mphOvercast
2:53 AM30.9 °F21.9 °F69 %30.10 in10.0 miCalmOvercast
3:53 AM30.0 °F21.9 °F72 %30.09 in10.0 miNNW (330°)3.5 mphOvercast
4:53 AM30.0 °F23.0 °F75 %30.09 in10.0 miNorth (360°)3.5 mphOvercast
5:53 AM33.1 °F23.0 °F66 %30.05 in10.0 miVariable3.5 mphOvercast
6:53 AM30.9 °F24.1 °F76 %30.05 in9.0 miVariable3.5 mph0.00 inSnowLight Snow
7:53 AM32.0 °F24.1 °F73 %30.05 in10.0 miNorth (360°)4.6 mphOvercast
8:53 AM32.0 °F24.1 °F73 %30.05 in10.0 miNorth (10°)5.8 mphOvercast
9:53 AM35.1 °F23.0 °F61 %30.06 in10.0 miNW (310°)10.4 mphMostly Cloudy
10:53 AM37.9 °F21.0 °F51 %30.06 in10.0 miNW (310°)17.3 mph23.0 mphOvercast
11:53 AM39.0 °F19.9 °F46 %30.06 in10.0 miNW (320°)19.6 mph27.6 mphMostly Cloudy
12:53 PM39.0 °F19.0 °F45 %30.05 in10.0 miNW (310°)19.6 mph26.5 mphMostly Cloudy
1:53 PM39.0 °F18.0 °F43 %30.04 in10.0 miNW (310°)21.9 mph32.2 mphClear
2:53 PM39.0 °F19.0 °F45 %30.04 in10.0 miNW (310°)18.4 mph28.8 mphClear
3:53 PM37.0 °F16.0 °F42 %30.05 in10.0 miWNW (300°)18.4 mph32.2 mphClear
4:53 PM36.0 °F17.1 °F46 %30.09 in10.0 miNW (320°)10.4 mphOvercast
5:53 PM35.1 °F18.0 °F50 %30.09 in10.0 miWNW (300°)12.7 mphOvercast
6:53 PM34.0 °F17.1 °F50 %30.12 in10.0 miWNW (300°)15.0 mphOvercast
7:53 PM33.1 °F15.1 °F48 %30.13 in10.0 miNW (320°)18.4 mph28.8 mphMostly Cloudy
8:53 PM32.0 °F14.0 °F48 %30.15 in10.0 miNW (310°)16.1 mph25.3 mphMostly Cloudy
9:53 PM30.9 °F15.1 °F52 %30.16 in10.0 miNW (310°)16.1 mph23.0 mphOvercast
10:53 PM30.9 °F15.1 °F52 %30.16 in10.0 miWNW (300°)15.0 mph21.9 mphOvercast
11:53 PM30.9 °F15.1 °F52 %30.17 in10.0 miWNW (300°)15.0 mphOvercast
Hourly data recorded from KBTM, located miles away from Boulder, Montana







STORIES FROM OUR PARTNERS